Location: Azul
(36.7830°S, 59.8500°W)
Time: 14:27:13
(UTC-03:00)

ISS - Pass Details

Date: 21 September 2020
Orbit: 419 x 421 km, 51.6° (Epoch: 30 September)

Event Time Altitude Azimuth Distance (km) Brightness Sun altitude
Exits shadow 05:39:47 - 351° (N) 2,174 -0.3 -14.7°
Reaches altitude 10° 05:41:50 10° 8° (N) 1,509 -1.0 -14.3°
Maximum altitude 05:44:08 17° 51° (NE) 1,155 -1.0 -13.9°
Drops below altitude 10° 05:46:27 10° 94° (E) 1,524 0.5 -13.4°
Sets 05:49:04 0° 114° (ESE) 2,399 1.7 -12.9°
